Location: Gombori
(14.9797°N, 2.9419°W)
Time: 08:09:10
(UTC+00:00)

Cosmos 2279 Rocket - Pass Details

Date: 29 July 2021
Orbit: 965 x 978 km, 82.9° (Epoch: 23 September)

Event Time Altitude Azimuth Distance (km) Brightness Sun altitude
Rises 20:47:09 0° 349° (N) 3,645 7.6 -28.2°
Reaches altitude 10° 20:49:40 10° 346° (NNW) 2,698 6.8 -28.7°
Maximum altitude 20:55:43 59° 268° (W) 1,109 4.4 -29.9°
Enters shadow 20:57:29 43° 214° (SW) 1,326 4.6 -30.3°
